logo tempoitalia

Diretta Meteo Edinburg Intl, Stati Uniti (USA)lunedì 31 agosto ore 01:35

Mappa
Sereno 29 °C Sereno 24 Ore: T.min 25 T.max 39
Ponente Sud Km/h 14.8 Punto di rugiada: 25 °C Umidità: 79% Visibilità: 10 Km
Il sole sorge alle: 07:12 Il sole tramonta alle: 19:53
31 Agosto 2026 01:35 tempo osservato: Sereno Sereno 29 79 1014 vento: Nord S 14.8
31 Agosto 2026 01:15 tempo osservato: Sereno Sereno 29 79 1014 vento: Nord S/SE 16.7
31 Agosto 2026 00:55 tempo osservato: Sereno Sereno 29 74 1014 vento: Nord S/SE 20.3
31 Agosto 2026 00:36 tempo osservato: Sereno Sereno 29 74 1014 vento: Nord S/SE 20.3
31 Agosto 2026 00:15 tempo osservato: Sereno Sereno 29 74 1014 vento: Nord S/SE 22.2
30 Agosto 2026 23:55 tempo osservato: Sereno Sereno 29 74 1014 vento: Nord S/SE 20.3
30 Agosto 2026 23:35 tempo osservato: Sereno Sereno 29 74 1014 vento: Nord S/SE 20.3
30 Agosto 2026 23:15 tempo osservato: Sereno Sereno 29 74 1014 vento: Nord S/SE 20.3
30 Agosto 2026 22:55 tempo osservato: Sereno Sereno 30 70 1014 vento: Nord SE 24
30 Agosto 2026 22:35 tempo osservato: Sereno Sereno 30 70 1013 vento: Nord SE 22.2
30 Agosto 2026 22:15 tempo osservato: Sereno Sereno 30 70 1013 vento: Nord SE 22.2
30 Agosto 2026 21:55 tempo osservato: Sereno Sereno 30 70 1012 vento: Nord SE 22.2
30 Agosto 2026 21:35 tempo osservato: Sereno Sereno 31 62 1012 vento: Nord SE 24
30 Agosto 2026 21:15 tempo osservato: Sereno Sereno 31 62 1012 vento: Nord SE 25.9
30 Agosto 2026 20:55 tempo osservato: Sereno Sereno 31 58 1012 vento: Nord SE 25.9
30 Agosto 2026 20:35 tempo osservato: Sereno Sereno 32 55 1011 vento: Nord SE 24
30 Agosto 2026 20:15 tempo osservato: Sereno Sereno 32 59 1011 vento: Nord SE 24
30 Agosto 2026 19:55 tempo osservato: Sereno Sereno 33 55 1011 vento: Nord E/SE 31.5
30 Agosto 2026 19:35 tempo osservato: Sereno Sereno 34 49 1011 vento: Nord SE 29.6
30 Agosto 2026 19:16 tempo osservato: Sereno Sereno 34 49 1010 vento: Nord SE 29.6
30 Agosto 2026 18:55 tempo osservato: Sereno Sereno 35 47 1010 vento: Nord E/SE 35.2
30 Agosto 2026 18:36 tempo osservato: Sereno Sereno 35 49 1010 vento: Nord E/SE 29.6
30 Agosto 2026 18:16 tempo osservato: Poco Nuvoloso Poco Nuvoloso 36 47 1010 vento: Nord E/SE 31.5
30 Agosto 2026 17:55 tempo osservato: Poco Nuvoloso Poco Nuvoloso 36 47 1010 vento: Nord SE 31.5
30 Agosto 2026 17:35 tempo osservato: Sereno Sereno 37 44 1010 vento: Nord SE 37
30 Agosto 2026 17:16 tempo osservato: Sereno Sereno 37 42 1010 vento: Nord SE 33.3
30 Agosto 2026 16:55 tempo osservato: Nuvoloso Nuvoloso 38 39 1010 vento: Nord SE 35.2
30 Agosto 2026 16:35 tempo osservato: Molto Nuvoloso Molto Nuvoloso 39 35 1010 vento: Nord SE 25.9
30 Agosto 2026 16:15 tempo osservato: Molto Nuvoloso Molto Nuvoloso 39 37 1010 vento: Nord E 27.8
30 Agosto 2026 15:55 tempo osservato: Poco Nuvoloso Poco Nuvoloso 39 29 1010 vento: Nord S/SO 14.8
30 Agosto 2026 15:36 tempo osservato: Poco Nuvoloso Poco Nuvoloso 39 31 1011 vento: Nord S 20.3
30 Agosto 2026 15:15 tempo osservato: Nuvoloso Nuvoloso 38 33 1011 vento: Nord S 22.2
30 Agosto 2026 14:55 tempo osservato: Nuvoloso Nuvoloso 39 31 1012 vento: Nord E/SE 16.7
30 Agosto 2026 14:35 tempo osservato: Poco Nuvoloso Poco Nuvoloso 38 35 1012 vento: Nord N 9.3
30 Agosto 2026 14:15 tempo osservato: Molto Nuvoloso Molto Nuvoloso 37 37 1012 vento: Nord S 18.5
30 Agosto 2026 13:55 tempo osservato: Molto Nuvoloso Molto Nuvoloso 37 37 1013 vento: Nord S/SE 20.3
30 Agosto 2026 13:35 tempo osservato: Molto Nuvoloso Molto Nuvoloso 36 41 1013 vento: Nord S 14.8
30 Agosto 2026 13:15 tempo osservato: Nuvoloso Nuvoloso 36 41 1014 vento: Nord S/SO 14.8
30 Agosto 2026 12:55 tempo osservato: Poco Nuvoloso Poco Nuvoloso 36 41 1014 vento: Nord S/SE 18.5
30 Agosto 2026 12:35 tempo osservato: Nuvoloso Nuvoloso 35 44 1014 vento: Nord S 25.9
30 Agosto 2026 12:16 tempo osservato: Sereno Sereno 36 44 1015 vento: Nord SE 20.3
30 Agosto 2026 11:55 tempo osservato: Sereno Sereno 35 47 1015 vento: Nord S 20.3
30 Agosto 2026 11:35 tempo osservato: Sereno Sereno 34 49 1015 vento: Nord S 16.7
30 Agosto 2026 11:15 tempo osservato: Sereno Sereno 34 52 1015 vento: Nord S 16.7
30 Agosto 2026 10:55 tempo osservato: Sereno Sereno 34 52 1015 vento: Nord S/SE 25.9
30 Agosto 2026 10:35 tempo osservato: Sereno Sereno 33 55 1015 vento: Nord S/SE 24
30 Agosto 2026 10:15 tempo osservato: Sereno Sereno 32 59 1015 vento: Nord S 20.3
30 Agosto 2026 09:55 tempo osservato: Sereno Sereno 31 66 1015 vento: Nord S 20.3
30 Agosto 2026 09:35 tempo osservato: Sereno Sereno 31 66 1015 vento: Nord S 18.5
30 Agosto 2026 09:15 tempo osservato: Sereno Sereno 30 70 1015 vento: Nord S/SE 16.7
30 Agosto 2026 08:55 tempo osservato: Sereno Sereno 29 79 1014 vento: Nord S/SE 16.7
30 Agosto 2026 08:35 tempo osservato: Sereno Sereno 28 83 1015 vento: Nord SE 13
30 Agosto 2026 08:15 tempo osservato: Sereno Sereno 27 83 1014 vento: Nord SE 11.1
30 Agosto 2026 07:55 tempo osservato: Sereno Sereno 26 88 1014 vento: Nord SE 7.4
30 Agosto 2026 07:35 tempo osservato: Sereno Sereno 25 94 1014 vento: Nord E/SE 7.4
30 Agosto 2026 07:15 tempo osservato: Sereno Sereno 25 94 1014 vento: Nord N 0
30 Agosto 2026 06:55 tempo osservato: Sereno Sereno 25 94 1014 vento: Nord N 5.5
30 Agosto 2026 06:35 tempo osservato: Sereno Sereno 25 94 1014 vento: Nord SE 7.4
30 Agosto 2026 06:16 tempo osservato: Sereno Sereno 25 88 1014 vento: Nord S/SE 9.3
30 Agosto 2026 05:55 tempo osservato: Sereno Sereno 25 94 1014 vento: Nord E/SE 9.3
30 Agosto 2026 05:35 tempo osservato: Sereno Sereno 26 88 1014 vento: Nord N 5.5
30 Agosto 2026 05:15 tempo osservato: Sereno Sereno 26 88 1014 vento: Nord SE 7.4
30 Agosto 2026 04:55 tempo osservato: Sereno Sereno 26 88 1014 vento: Nord SE 7.4
30 Agosto 2026 04:35 tempo osservato: Nuvoloso Nuvoloso 26 88 1014 vento: Nord N 5.5
30 Agosto 2026 04:15 tempo osservato: Nuvoloso Nuvoloso 26 88 1014 vento: Nord N 5.5
30 Agosto 2026 03:55 tempo osservato: Poco Nuvoloso Poco Nuvoloso 26 88 1014 vento: Nord SE 9.3
30 Agosto 2026 03:35 tempo osservato: Sereno Sereno 26 88 1014 vento: Nord SE 9.3
30 Agosto 2026 03:15 tempo osservato: Sereno Sereno 27 83 1014 vento: Nord N 5.5
30 Agosto 2026 02:55 tempo osservato: Sereno Sereno 27 83 1014 vento: Nord SE 7.4
30 Agosto 2026 02:35 tempo osservato: Sereno Sereno 27 83 1015 vento: Nord N 5.5
30 Agosto 2026 02:16 tempo osservato: Sereno Sereno 27 83 1015 vento: Nord S 7.4
30 Agosto 2026 01:55 tempo osservato: Sereno Sereno 27 83 1015 vento: Nord S/SE 7.4
30 Agosto 2026 01:35 tempo osservato: Sereno Sereno 28 78 1015 vento: Nord S/SE 11.1